Reflectivity
-20 -20 -20 -20 -20 -20 -20 -20 -20 -20 -20 -20 -20 -20 -20 -20 1 -18 -20 -20 -20 -11 2 16 17 13 -20 -20 -10 7 10 -9 -17 -3 7 -20 -20 -20
-20 -20 -20 -19 -20 -20 -20 -20 -20 -20 -20 -20 -20 -20 -20 -20 -20 -20 -20 7 -16 11 -6 1 16 16 -16 5 -20 -16 10 8 -11 9 -1 -13 -20 -20
-20 -20 -20 -19 -8 -1 -20 -20 -20 -20 -20 -20 -20 -20 -20 -20 -20 -20 -20 -20 -12 -18 -20 -20 -19 18 24 13 18 -16 -20 -2 5 8 4 -19 -20 -20
-20 -20 -20 -18 -13 -15 -1 -20 -20 -1 -13 -20 -20 -20 -20 -20 -20 -20 -20 -20 -20 -20 -20 -20 -20 -20 16 -20 23 18 -20 8 11 5 -2 -15 -15 -10
14 -20 -20 -20 -16 -20 -20 -20 -9 4 -4 -8 -20 -17 -20 -20 -20 -20 -20 -20 -20 -20 -20 -20 -20 -20 -20 -20 -6 23 11 7 4 -19 -15 -20 10 -13
-17 -20 -20 -20 -20 -19 -20 -20 -18 -20 -17 -14 -20 -18 5 -19 -20 -19 -20 -20 -20 -20 -20 -20 -20 -20 -20 -20 -20 -20 -16 7 -6 -19 -20 -3 -4 17
-3 -20 -20 1 -2 17 -10 -20 -20 -20 -10 -18 -1 -1 8 -20 -13 -15 -20 -20 -20 -20 -20 -20 -20 -20 -20 -20 -20 -20 -20 -20 -20 -20 1 9 16 13
-4 -20 -20 -20 3 4 12 -1 -20 -20 -20 -20 -20 -20 -9 20 4 -16 -20 -20 -20 -20 -20 -20 -20 -20 -20 -20 -20 -20 -20 -20 6 14 10 7 -20 -9
-20 -20 -20 -20 -20 -20 -12 -2 -3 8 -3 -20 -20 -20 9 13 16 -19 -20 -20 -20 -20 -20 -20 -20 -20 -20 -20 -20 -20 -3 7 18 20 18 10 -13 1
-18 -20 -20 -20 -20 -7 -15 -5 -19 4 -18 -18 -17 5 4 15 -14 -17 -8 -11 -20 -20 -20 -20 -20 -20 -20 -20 -3 13 16 1 18 20 20 11 7 -12
-20 -20 -20 -20 3 14 -20 -18 -4 -18 19 15 20 -3 11 4 2 -1 -6 -6 -17 -20 -20 -20 -20 -10 -0 17 13 19 19 14 16 23 22 14 7 -20
1 6 12 -17 -20 -8 -20 -0 -14 -16 3 22 11 3 10 9 10 -2 -9 15 -9 -20 -20 -5 10 18 21 15 6 16 18 24 16 16 12 11 -7 -20
-20 -20 -20 9 -20 2 14 3 13 8 12 8 -16 -9 -7 -9 -13 11 3 -11 15 18 10 -7 -7 2 1 -9 -10 5 -3 5 6 10 4 -5 -20 -20
-20 -20 -20 -20 -9 -19 1 8 7 5 -6 6 -10 -5 7 10 16 14 17 14 -6 -5 14 13 10 7 6 -6 -8 -6 -11 -17 -4 -4 -20 -20 -20 -20
3 12 18 9 11 3 8 11 11 8 -9 -10 12 15 7 8 20 16 13 16 18 14 8 -11 -3 4 1 1 -3 -6 6 -20 -20 -20 -20 -20 -20 -20
25 22 12 17 9 -5 3 10 -5 6 14 17 15 12 4 -6 8 13 12 17 9 15 12 3 3 3 4 10 1 -12 -19 -19 -20 -20 -20 -20 -20 -20
27 23 23 23 22 10 -14 -15 -3 1 -1 0 -10 -5 -14 -9 -6 13 17 9 4 13 8 5 1 -5 -17 -20 -17 -18 -18 -20 -20 -20 -20 -20 -20 -20
36 27 25 28 27 25 28 10 6 9 -2 -16 -12 -2 4 16 16 19 16 14 2 -15 -20 -19 -12 -3 -3 4 3 -20 -20 -20 -20 -20 -20 -20 -20 -20
30 31 30 30 30 30 30 27 -13 -20 -20 -20 -20 -20 -20 -20 3 -20 -20 -20 -20 -20 -20 -20 -11 1 -4 -20 -19 -20 -20 -20 -20 -20 -20 -20 -20 -20
17 15 14 18 27 24 24 22 17 11 1 -17 -20 -20 -20 -19 -20 -20 -20 -20 -20 -20 -20 -20 -20 -19 -18 -16 -17 -18 -20 -20 -20 -20 -20 -20 -20 -20
18 17 16 10 14 25 26 24 19 22 26 16 9 4 -1 -16 -20 -20 -20 -7 -4 -20 -20 -20 -20 -20 -20 -20 -20 -20 -20 -20 -20 -20 -20 -20 -20 -20
12 13 13 11 11 12 16 25 27 28 21 20 10 9 9 7 -4 -20 -20 -20 -15 -19 -20 -19 -20 -20 -20 -20 -20 -20 -20 -20 -20 -20 -20 -20 -20 -20
5 3 5 5 2 4 8 11 9 2 -8 -5 -1 8 7 -5 -20 -20 -20 -20 -20 -19 -20 -20 -20 -20 -20 -20 -20 -20 -20 -20 -20 -20 -20 -20 -20 -20
Wind_Speed
10 9 7 6 5 5 5 5 3 5 5 5 4 6 4 7 8 8 9 12 17 18 20 15 12 9 14 16 16 15 15 16 14 13 12 10 9 8
8 10 8 6 5 4 5 5 4 6 6 3 3 5 5 3 6 9 9 10 15 19 19 15 14 11 10 15 18 16 14 14 16 14 13 11 10 8
11 11 11 9 7 7 5 5 5 6 7 6 3 3 6 5 4 4 5 6 7 14 17 18 15 12 12 11 16 18 17 16 17 15 14 12 10 8
14 12 13 9 11 8 6 7 6 6 6 10 7 6 5 6 6 5 5 5 6 11 16 17 17 17 16 15 18 18 16 16 16 15 13 11 9 8
14 14 14 13 11 8 9 8 8 7 6 5 7 4 5 5 3 2 3 4 4 5 11 12 16 16 16 17 16 16 16 16 14 13 12 9 8 7
12 12 13 14 14 14 11 12 9 8 7 7 8 7 4 4 4 4 4 4 5 5 6 7 10 14 15 16 17 18 17 16 15 15 12 10 8 9
9 10 11 10 11 11 9 10 9 8 7 8 7 5 4 3 6 4 6 4 5 4 4 5 4 4 7 12 11 15 17 18 17 16 14 13 12 13
11 12 11 10 10 12 13 11 13 11 11 9 9 8 11 6 5 6 5 3 3 5 5 4 4 5 4 5 12 17 18 18 17 16 16 15 14 13
10 9 7 6 9 8 13 12 13 14 13 11 11 11 9 7 6 6 6 5 4 3 3 2 3 4 2 2 11 15 17 17 16 16 16 15 14 12
9 9 10 9 10 10 10 10 10 10 12 7 7 5 6 5 8 6 6 4 3 2 2 3 2 2 2 2 6 15 18 18 17 18 17 14 10 11
6 7 8 8 10 14 9 9 9 8 9 12 10 7 7 8 5 4 3 4 3 4 3 2 2 2 0 0 2 7 10 15 14 13 12 11 12 12
6 6 10 8 11 14 10 8 8 8 7 6 7 6 4 3 6 6 5 4 3 1 5 5 3 3 1 0 0 1 3 5 10 11 12 12 11 3
6 5 4 11 10 12 13 7 7 6 7 5 4 3 3 4 3 3 4 4 3 3 4 4 2 2 1 2 1 1 2 1 2 3 11 11 9 7
6 4 4 9 9 10 9 7 10 7 4 4 3 3 3 3 2 4 4 4 4 1 7 4 3 3 3 2 2 2 1 2 2 3 3 6 9 11
4 7 10 10 11 7 8 9 8 4 4 2 2 2 2 4 5 4 6 7 7 6 5 2 2 3 2 2 3 3 3 4 3 3 3 4 4 4
7 6 8 10 12 10 8 7 4 3 3 3 3 3 3 2 2 2 2 2 2 2 6 6 4 2 2 2 2 3 1 2 2 2 2 2 2 4
6 5 4 3 5 5 4 4 4 3 4 2 3 3 3 3 2 1 2 1 1 3 2 2 4 5 4 3 2 2 2 2 2 3 2 2 3 4
7 7 6 4 4 4 4 3 3 4 2 3 4 3 3 4 3 2 1 2 2 2 3 2 2 2 1 1 1 2 2 2 2 2 1 2 2 4
8 7 6 5 5 4 3 2 2 2 2 2 2 3 4 3 5 3 2 2 2 2 2 3 3 2 3 3 0 1 4 3 3 2 3 4 2 2
7 7 7 7 5 4 3 3 2 2 2 2 2 2 2 2 3 3 3 3 2 2 3 3 4 4 2 2 3 1 3 2 2 2 1 1 4 12
7 7 6 6 6 5 4 2 1 1 1 1 1 1 2 2 3 3 4 7 6 4 4 5 4 5 3 2 2 1 2 7 2 2 1 0 2 2
7 7 6 6 6 6 5 5 3 3 1 1 1 1 2 2 2 3 4 3 4 4 2 4 4 2 2 3 2 4 2 1 4 9 11 9 2 3
6 6 6 6 6 6 5 5 5 4 2 2 1 0 1 2 2 2 2 3 3 4 3 4 4 2 2 1 3 2 2 1 1 2 3 13 17 19
Wind_Direction
206 203 205 198 208 189 201 217 220 217 220 189 190 189 208 193 200 196 216 206 211 217 232 236 242 216 219 210 211 215 210 208 210 217 224 231 244 263
200 200 207 199 198 192 204 218 193 224 242 228 194 165 172 222 192 201 214 199 208 220 225 225 236 207 212 208 207 206 207 203 209 218 225 233 242 256
199 197 207 196 206 208 193 208 195 209 229 239 249 223 168 180 213 221 229 214 196 213 224 226 225 219 221 226 213 204 198 202 208 217 223 231 241 256
197 196 211 203 207 188 189 203 199 206 215 235 220 218 198 194 219 211 199 229 217 204 213 226 225 218 210 216 217 203 194 196 202 213 218 227 242 256
203 201 207 200 202 195 205 203 206 211 210 221 238 205 201 185 177 251 253 213 226 243 201 222 230 216 207 211 209 204 192 193 191 196 205 216 231 257
206 204 206 201 202 200 203 205 201 201 210 207 226 230 197 154 169 199 211 217 228 214 220 229 225 220 214 211 207 199 190 181 183 190 195 204 214 239
202 211 215 206 204 200 194 199 193 200 197 208 216 205 186 153 189 180 231 200 215 205 205 215 207 206 212 215 204 182 180 179 183 193 201 206 213 230
201 206 207 191 194 188 192 191 194 196 205 205 211 213 212 197 180 204 196 181 237 194 185 231 178 216 205 196 195 186 183 179 186 197 207 210 220 234
202 202 200 194 188 197 205 200 204 206 211 206 210 211 211 188 175 197 199 197 213 158 159 243 154 223 164 171 182 180 180 184 197 210 211 213 226 236
196 194 197 186 188 188 197 203 211 211 218 223 218 212 210 192 187 191 198 189 65 81 190 207 116 217 38 44 194 185 191 198 207 211 212 213 223 243
178 183 188 189 185 189 190 196 201 209 211 211 217 214 218 197 172 122 163 132 208 197 183 192 172 138 48 323 334 352 231 208 200 207 208 213 233 233
170 175 188 185 183 188 196 196 200 204 182 185 219 232 208 202 180 181 157 175 147 197 199 180 150 145 208 147 289 336 353 202 192 201 218 223 221 173
171 169 174 193 191 188 192 191 197 158 175 174 174 175 176 185 175 148 159 151 161 211 176 122 153 150 99 131 172 198 182 189 190 218 224 219 203 211
171 149 155 178 185 184 184 162 149 137 134 146 150 169 156 140 100 87 78 77 44 107 165 126 145 163 137 140 186 150 199 210 199 164 145 200 227 239
104 125 130 129 122 111 134 141 125 124 130 115 129 112 89 109 106 81 77 80 67 41 47 62 121 137 135 148 155 164 142 197 173 185 166 173 203 216
64 78 91 95 94 100 86 77 86 102 116 114 106 95 96 92 95 94 94 103 93 70 40 38 61 107 120 83 103 145 124 167 137 176 181 203 228 233
62 65 59 51 78 81 73 81 87 89 99 102 114 115 115 114 106 124 108 133 133 147 137 56 52 61 59 117 132 144 140 124 152 151 130 247 246 237
56 49 53 51 67 79 79 57 59 83 68 104 116 126 138 149 143 132 113 159 139 155 145 138 139 97 65 37 8 136 113 146 134 139 140 193 244 248
55 46 46 40 36 48 77 70 76 62 68 83 120 146 149 148 161 158 155 150 137 143 132 144 164 177 155 201 163 274 153 169 152 180 186 203 225 245
40 39 33 29 25 32 35 45 60 76 75 84 88 104 115 130 150 165 172 170 141 143 151 166 184 192 173 188 163 172 232 136 159 192 205 218 250 266
30 35 28 22 22 16 13 29 69 98 134 147 160 159 160 161 170 171 178 194 184 175 189 199 197 153 106 103 91 186 194 225 225 172 123 163 272 294
19 19 17 18 19 18 12 8 16 28 37 128 143 179 177 190 213 190 184 189 201 191 216 109 103 128 187 191 179 126 154 136 225 242 241 230 182 243
9 8 3 5 6 4 8 7 8 8 11 5 4 223 184 217 206 205 198 195 199 178 150 156 162 177 187 166 165 128 126 183 248 260 242 238 242 251